Grand Lake O' the Cherokees Weather Center

Moon Phase Calendar



Grand Lake O' the Cherokees Water Level
Online Cameras

 


      

Current Conditions in Copeland
4/19/2024 12:36:51 PM

59°F
Feels Like 56
Clear
Humidity
43%
Pressure
30.24"
Wind
8 mph (ENE)
Dew Point
36°F
UV Index
8/10 (Very High)
Visibility
6 mi

Hourly Forecast

Date & Time Fri, Apr 19
12:00 PM
Fri, Apr 19
1:00 PM
Fri, Apr 19
2:00 PM
Fri, Apr 19
3:00 PM
Fri, Apr 19
4:00 PM
Fri, Apr 19
5:00 PM
Fri, Apr 19
6:00 PM
Fri, Apr 19
7:00 PM
Fri, Apr 19
8:00 PM
Fri, Apr 19
9:00 PM
Fri, Apr 19
10:00 PM
Fri, Apr 19
11:00 PM
Sat, Apr 20
12:00 AM
Sat, Apr 20
1:00 AM
Sat, Apr 20
2:00 AM
Sat, Apr 20
3:00 AM
Sat, Apr 20
4:00 AM
Sat, Apr 20
5:00 AM
Sat, Apr 20
6:00 AM
Sat, Apr 20
7:00 AM
Sat, Apr 20
8:00 AM
Sat, Apr 20
9:00 AM
Sat, Apr 20
10:00 AM
Sat, Apr 20
11:00 AM
Sat, Apr 20
12:00 PM
Sat, Apr 20
1:00 PM
Sat, Apr 20
2:00 PM
Sat, Apr 20
3:00 PM
Sat, Apr 20
4:00 PM
Sat, Apr 20
5:00 PM
Sat, Apr 20
6:00 PM
Sat, Apr 20
7:00 PM
Sat, Apr 20
8:00 PM
Sat, Apr 20
9:00 PM
Sat, Apr 20
10:00 PM
Sat, Apr 20
11:00 PM
Sun, Apr 21
12:00 AM
Sun, Apr 21
1:00 AM
Sun, Apr 21
2:00 AM
Sun, Apr 21
3:00 AM
Sun, Apr 21
4:00 AM
Sun, Apr 21
5:00 AM
Sun, Apr 21
6:00 AM
Sun, Apr 21
7:00 AM
Sun, Apr 21
8:00 AM
Sun, Apr 21
9:00 AM
Sun, Apr 21
10:00 AM
Sun, Apr 21
11:00 AM
Condition
Clear

Clear

Clouds

Clouds

Clouds

Clouds

Clouds

Clouds

Clouds

Clouds

Clouds

Clouds

Clouds

Clouds

Clear

Clouds

Clouds

Clouds

Clouds

Clouds

Clouds

Clouds

Clouds

Clouds

Clouds

Clouds

Clouds

Clouds

Clouds

Clouds

Clouds

Clouds

Clouds

Clouds

Clouds

Clouds

Clouds

Clouds

Clouds

Clouds

Clouds

Clouds

Clouds

Clouds

Clouds

Clouds

Clouds

Clouds
Temperature 58°F59°F59°F60°F60°F60°F60°F57°F53°F51°F49°F48°F47°F46°F45°F45°F44°F43°F42°F42°F45°F50°F54°F57°F59°F61°F61°F60°F60°F59°F57°F53°F52°F50°F47°F47°F48°F48°F47°F48°F45°F45°F46°F44°F46°F48°F52°F55°F
Feels Like 56°F56°F57°F57°F58°F58°F58°F55°F51°F49°F45°F44°F43°F41°F40°F40°F39°F38°F37°F37°F41°F45°F52°F55°F57°F59°F59°F58°F58°F57°F55°F51°F49°F45°F43°F43°F44°F46°F45°F45°F42°F42°F44°F42°F43°F46°F49°F52°F
Cloudiness 9%0%20%40%59%77%97%97%100%100%89%83%83%70%9%44%31%25%23%20%100%90%66%61%63%63%100%100%100%100%99%99%100%100%100%100%100%100%100%100%100%100%100%100%100%100%99%99%
Visibility 6 mi6 mi6 mi6 mi6 mi6 mi6 mi6 mi6 mi6 mi6 mi6 mi6 mi6 mi6 mi6 mi6 mi6 mi6 mi6 mi6 mi6 mi6 mi6 mi6 mi6 mi6 mi6 mi6 mi6 mi6 mi6 mi6 mi6 mi6 mi6 mi6 mi6 mi6 mi6 mi6 mi6 mi6 mi6 mi6 mi6 mi6 mi6 mi
Precipitation 0%0%0%0%0%0%0%0%0%0%0%0%0%0%0%0%0%0%0%0%0%0%0%0%0%0%0%0%0%0%0%0%0%0%0%0%0%0%0%0%0%0%0%0%0%0%0%0%
Humidity 44%43%42%42%43%44%53%57%60%60%62%59%61%65%65%61%62%63%64%66%66%57%51%46%45%46%48%49%50%52%58%60%57%61%64%60%59%59%62%59%63%61%57%62%61%57%51%47%
Dew Point 37°F36°F36°F36°F38°F38°F42°F42°F39°F37°F37°F35°F34°F35°F34°F32°F31°F31°F31°F31°F35°F35°F36°F37°F38°F39°F41°F41°F41°F41°F42°F39°F37°F37°F35°F34°F34°F34°F34°F34°F33°F32°F32°F32°F33°F34°F34°F34°F
Pressure 30.24"30.24"30.24"30.21"30.18"30.18"30.15"30.15"30.18"30.21"30.21"30.24"30.24"30.27"30.27"30.27"30.3"30.3"30.33"30.33"30.36"30.36"30.36"30.33"30.3"30.3"30.27"30.27"30.24"30.27"30.27"30.27"30.27"30.3"30.3"30.3"30.33"30.33"30.33"30.33"30.33"30.33"30.33"30.36"30.36"30.36"30.36"30.36"
Wind Speed 14.8 mph13 mph14.2 mph13.6 mph13.1 mph13.2 mph11.2 mph11.1 mph9.5 mph9.4 mph10.1 mph11.1 mph10.8 mph9.8 mph9.9 mph10.2 mph8.6 mph8.3 mph8 mph8.2 mph9.1 mph13 mph13.3 mph12.9 mph14.4 mph14.4 mph15.5 mph15.8 mph16.2 mph16.4 mph15.7 mph14.4 mph13.4 mph12.7 mph9.7 mph8.7 mph7.2 mph5.6 mph4.7 mph5.4 mph6 mph5.5 mph5.2 mph5 mph6.1 mph6.2 mph6.2 mph7.1 mph
Wind
Direction
39°
NE
39°
NE
34°
NE
35°
NE
34°
NE
34°
NE
33°
NNE
31°
NNE
36°
NE
35°
NE
34°
NE
39°
NE
45°
NE
48°
NE
54°
NE
58°
ENE
65°
ENE
65°
ENE
66°
ENE
60°
ENE
48°
NE
45°
NE
53°
NE
51°
NE
41°
NE
36°
NE
30°
NNE
31°
NNE
31°
NNE
26°
NNE
22°
NNE
27°
NNE
28°
NNE
27°
NNE
35°
NE
33°
NNE
26°
NNE
25°
NNE
32°
NNE
25°
NNE
30°
NNE
26°
NNE
27°
NNE
27°
NNE
47°
NE
45°
NE
29°
NNE
22°
NNE

Daily Forecast

Date High Low Precip. Humidity
Today
Apr 19

Clear
60 °F
44 °F
0%
43%
Saturday
Apr 20

Clouds
61 °F
42 °F
0%
46%
Sunday
Apr 21

Clouds
60 °F
44 °F
0%
45%
Monday
Apr 22

Clear
69 °F
43 °F
0%
46%
Tuesday
Apr 23

Rain
67 °F
54 °F
100%
80%
Wednesday
Apr 24

Clouds
64 °F
43 °F
0%
48%
Thursday
Apr 25

Rain
57 °F
55 °F
100%
96%
Friday
Apr 26

Rain
82 °F
57 °F
100%
71%
Saturday
Apr 27

Rain
80 °F
68 °F
32%
83%
Sunday
Apr 28

Rain
80 °F
63 °F
100%
65%
Monday
Apr 29

Clear
82 °F
56 °F
0%
52%
Tuesday
Apr 30

Rain
77 °F
64 °F
100%
78%
Wednesday
May 1

Rain
80 °F
66 °F
100%
72%
Thursday
May 2

Rain
73 °F
59 °F
100%
64%
Friday
May 3

Clear
68 °F
49 °F
0%
55%
Saturday
May 4

Clear
69 °F
49 °F
0%
55%

Temperature 8-14 Day Outlook



Precipitation 8-14 Day Outlook






About Us
Contact Us
Site Map
Search Site
Advertise With Us
   
GrandLake.USLakes.info
THE GRAND LAKE O' THE CHEROKEES WEBSITE

Copyright 2024, Lakes Online
Privacy    |    Legal